Location: Bambrugge
(50.9212°N, 3.9299°E)
Time: 19:29:33
(UTC+00:00)

BREEZE-M DEB (TANK) - Pass Details

Date: 23 May 2024
Orbit: 290 x 16913 km, 49.4° (Epoch: 16 June)

Event Time Altitude Azimuth Distance (km) Brightness Sun altitude
Rises 00:02:09 0° 276° (W) 2,034 5.8 -18.3°
Enters shadow 00:02:16 - 276° (W) 1,973 5.7 -18.3°
Exits shadow 00:06:53 35° 158° (SSE) 1,008 3.7 -18.2°
Drops below altitude 10° 00:11:49 10° 124° (SE) 3,278 6.5 -18.1°
Sets 00:17:22 0° 120° (ESE) 5,847 7.8 -18.0°
